[[{"header":{"parameterUnit":"m.s-1","parameterCategory":1,"la1":30.2991,"la2":30.254,"lo1":-89.0895,"lo2":-89.0444,"dy":0.0017,"dx":0.0017,"nx":28,"ny":28,"refTime":"2024-04-16T09:00:00:Z","depth":0,"parameterNumber":2,"parameterNumberName":"U-component_of_WINDS"},"data":[0,0,0,0,0,0,0,0,0,0,0,0,0,0,0,0,0,0,0,0,0,0,0,0,0,0,0,0,0,0,0,0,0,0,0,0,0,0,0,0,0,0,0,0,0,0,0,0,0,0,0,0,0,0,0,0,0,0,-2.2441,-2.2441,0,-2.2487,-2.2488,-2.2488,-2.2484,-2.2483,-2.2482,-2.2482,-2.253,-2.2531,-2.2533,0,0,0,0,0,0,0,0,0,0,0,0,0,-2.2348,-2.235,-2.2441,-2.2441,-2.2442,-2.2487,-2.2488,-2.2488,-2.2484,-2.2483,-2.2482,-2.2481,-2.2529,-2.2531,-2.2534,0,0,0,0,0,0,0,0,0,0,0,0,0,-2.2391,-2.2351,-2.2441,-2.2445,-2.2446,-2.2487,-2.2488,-2.2489,-2.2484,-2.2483,-2.2482,-2.2481,-2.2528,-2.2531,-2.2534,-2.2574,0,0,-2.2543,-2.2544,0,0,0,0,0,0,0,0,-2.2389,-2.2395,-2.2444,-2.2445,-2.2446,-2.2479,-2.2473,-2.2517,-2.2484,-2.247,-2.2482,-2.2481,-2.2514,-2.2518,-2.2529,-2.2576,-2.2578,-2.2543,-2.2545,-2.2546,-2.2547,0,0,0,0,0,0,0,-2.2386,-2.2393,-2.2459,-2.2445,-2.2446,-2.2445,-2.245,-2.2481,-2.2497,-2.2471,-2.2471,-2.2476,-2.2514,-2.2526,-2.253,-2.2579,-2.2543,-2.2546,-2.2547,-2.2549,-2.2661,-2.2662,0,0,0,0,0,0,-2.2382,-2.239,-2.2458,-2.2461,-2.2414,-2.2448,-2.2453,-2.2469,-2.2497,-2.25,-2.2477,-2.2476,-2.2521,-2.2526,-2.2531,-2.258,-2.2546,-2.2549,-2.2551,-2.266,-2.2661,-2.2662,0,0,0,0,0,0,-2.238,-2.2388,-2.2456,-2.2425,-2.2434,-2.245,-2.2469,-2.2471,-2.2483,-2.2501,-2.2504,-2.2486,-2.2521,-2.2527,-2.2563,-2.2581,-2.255,-2.2553,-2.2658,-2.266,-2.2662,-2.2676,0,0,0,0,0,0,-2.2377,-2.2387,-2.2402,-2.2426,-2.2436,-2.2487,-2.247,-2.2472,-2.2488,-2.2487,-2.2511,-2.2514,-2.252,-2.2559,-2.2566,-2.2585,-2.2555,-2.2657,-2.2659,-2.2661,-2.2674,-2.2679,-2.2682,0,0,0,0,0,-2.2374,-2.2404,-2.2403,-2.2411,-2.2455,-2.2488,-2.2493,-2.25,-2.2489,-2.2505,-2.2517,-2.2513,-2.2578,-2.2563,-2.2571,-2.259,-2.2655,-2.2658,-2.2661,-2.2673,-2.2678,-2.2682,0,0,0,0,0,0,-2.2383,-2.2408,-2.2406,-2.2445,-2.2464,-2.2487,-2.2506,-2.2505,-2.2528,-2.2526,-2.2533,-2.2539,-2.2575,-2.2586,-2.2568,-2.263,-2.2615,-2.262,-2.2622,-2.2627,-2.263,-2.2627,-2.2558,0,0,0,0,0,-2.2389,-2.2414,-2.2434,-2.2467,-2.2477,-2.249,-2.2504,-2.2508,-2.2528,-2.2536,-2.2551,-2.2571,-2.2596,-2.2612,-2.2636,-2.2676,-2.2681,-2.2694,-2.2698,-2.2701,-2.2705,-2.2727,-2.2733,-2.2672,-2.2672,-2.2671,0,0,-2.2403,-2.242,-2.2435,-2.2469,-2.2484,-2.251,-2.2497,-2.2524,-2.2543,-2.254,-2.2575,-2.2587,-2.2609,-2.2648,-2.2665,-2.2658,-2.2723,-2.2704,-2.2707,-2.2709,-2.273,-2.2736,-2.2741,-2.2673,-2.2673,-2.2673,0,0,-2.2441,-2.2456,-2.2485,-2.25,-2.2523,-2.2532,-2.2539,-2.2562,-2.2569,-2.2604,-2.2603,-2.2626,-2.2669,-2.2685,-2.2698,-2.2743,-2.274,-2.2751,-2.277,-2.2792,-2.2797,-2.2801,-2.2817,-2.2822,-2.2754,-2.2754,-2.2754,0,-2.2455,-2.2493,-2.25,-2.2527,-2.2543,-2.2542,-2.2571,-2.2586,-2.2616,-2.2626,-2.2618,-2.2672,-2.2687,-2.2729,-2.274,-2.2751,-2.2759,-2.2747,-2.2796,-2.28,-2.2804,-2.2819,-2.2825,-2.2755,-2.2755,-2.2755,-2.2755,0,-2.2509,-2.2536,-2.2556,-2.2585,-2.2602,-2.2631,-2.2642,-2.2659,-2.2661,-2.2671,-2.2707,-2.2725,-2.2752,-2.2763,-2.2765,-2.2806,-2.28,-2.2794,-2.2779,-2.2811,-2.2825,-2.2831,-2.2757,-2.2756,-2.2756,-2.2756,0,0,-2.2554,-2.2586,-2.2593,-2.2606,-2.2632,-2.2653,-2.2681,-2.2708,-2.2722,-2.2743,-2.2767,-2.2804,-2.2798,-2.2814,-2.2818,-2.2837,-2.2871,-2.2828,-2.2829,-2.2835,-2.2916,-2.2921,-2.2927,-2.287,-2.2871,-2.2872,-2.2914,0,-2.2594,-2.2644,-2.2651,-2.2695,-2.272,-2.2719,-2.2744,-2.2763,-2.2772,-2.2795,-2.2806,-2.2831,-2.2822,-2.2831,-2.285,-2.2863,-2.2887,-2.286,-2.2892,-2.2893,-2.2886,-2.2935,-2.2939,-2.2978,-2.292,-2.2921,-2.2921,0,-2.2648,-2.267,-2.2716,-2.2738,-2.2749,-2.2771,-2.2796,-2.2818,-2.2839,-2.2845,-2.2863,-2.2865,-2.2894,-2.2878,-2.2919,-2.2901,-2.2914,-2.2922,-2.2924,-2.2927,-2.2909,-2.2938,-2.2991,-2.2997,-2.293,-2.293,-2.2929,0,-2.2675,-2.2717,-2.275,-2.2761,-2.2788,-2.2803,-2.2815,-2.2835,-2.2851,-2.2873,-2.2884,-2.2909,-2.2923,-2.2943,-2.2952,-2.294,-2.2992,-2.2977,-2.2998,-2.2998,-2.3009,-2.3008,-2.3064,-2.3018,-2.3018,-2.3018,-2.3018,0,-2.2719,-2.2748,-2.2762,-2.2783,-2.2815,-2.2823,-2.2854,-2.2866,-2.2884,-2.2906,-2.2908,-2.2929,-2.294,-2.2963,-2.297,-2.3003,-2.3009,-2.3015,-2.3017,-2.3015,-2.3014,-2.3023,-2.3021,-2.302,-2.3019,-2.3019,-2.3019,0,-2.2755,-2.2766,-2.2802,-2.2825,-2.2831,-2.2854,-2.2873,-2.2893,-2.2903,-2.2932,-2.2939,-2.2954,-2.2982,-2.2993,-2.3026,-2.3031,-2.3069,-2.3068,-2.3061,-2.3062,-2.3082,-2.308,-2.3146,-2.3154,-2.3103,-2.3104,-2.3104,0,-2.2783,-2.2805,-2.2829,-2.2844,-2.2857,-2.2881,-2.2897,-2.2906,-2.2923,-2.2949,-2.2965,-2.2993,-2.3015,-2.3058,-2.3073,-2.3098,-2.3098,-2.312,-2.3102,-2.31,-2.3098,-2.3097,-2.3099,-2.3123,-2.3123,-2.3124,-2.3124,0,-2.283,-2.2834,-2.2857,-2.2882,-2.2901,-2.2921,-2.2941,-2.2953,-2.2965,-2.2984,-2.3012,-2.3029,-2.3063,-2.309,-2.3116,-2.3129,-2.3129,-2.313,-2.3136,-2.3134,-2.3129,-2.3131,-2.307,-2.3128,-2.3128,-2.3127,-2.3127,-2.3127,-2.2862,-2.2882,-2.2902,-2.2927,-2.2943,-2.2961,-2.2981,-2.2993,-2.3017,-2.3045,-2.3049,-2.3078,-2.3099,-2.3135,-2.3148,-2.3172,-2.3166,-2.3175,-2.3177,-2.3179,-2.318,-2.3125,-2.3177,-2.3176,-2.3176,-2.3176,-2.3176,0,-2.291,-2.2923,-2.2946,-2.2973,-2.2993,-2.2991,-2.3013,-2.303,-2.3056,-2.3075,-2.3096,-2.3128,-2.3155,-2.3171,-2.3197,-2.3213,-2.3214,-2.322,-2.3218,-2.3221,-2.3184,-2.3176,-2.3219,-2.3219,-2.3219,-2.3219,-2.3219,-2.3219,-2.2936,-2.2969,-2.2976,-2.3016,-2.3029,-2.3058,-2.307,-2.3087,-2.3102,-2.3138,-2.3159,-2.317,-2.3188,-2.3216,-2.324,-2.3244,-2.3254,-2.326,-2.3264,-2.3228,-2.3224,-2.322,-2.3212,-2.3262,-2.3262,-2.3299,-2.33,-2.33]},{"header":{"parameterUnit":"m.s-1","parameterCategory":1,"la1":30.2991,"la2":30.254,"lo1":-89.0895,"lo2":-89.0444,"dy":0.0017,"dx":0.0017,"nx":28,"ny":28,"refTime":"2024-04-16T09:00:00:Z","depth":0,"parameterNumber":3,"parameterNumberName":"V-component_of_WINDS"},"data":[0,0,0,0,0,0,0,0,0,0,0,0,0,0,0,0,0,0,0,0,0,0,0,0,0,0,0,0,0,0,0,0,0,0,0,0,0,0,0,0,0,0,0,0,0,0,0,0,0,0,0,0,0,0,0,0,0,0,4.2175,4.2176,0,4.2235,4.2236,4.2236,4.2209,4.2208,4.2206,4.2205,4.2266,4.2269,4.2272,0,0,0,0,0,0,0,0,0,0,0,0,0,4.2037,4.2039,4.2175,4.2176,4.2177,4.2235,4.2236,4.2237,4.2209,4.2208,4.2206,4.2204,4.2265,4.2268,4.2272,0,0,0,0,0,0,0,0,0,0,0,0,0,4.2097,4.204,4.2175,4.217,4.217,4.2235,4.2236,4.2237,4.221,4.2208,4.2205,4.2203,4.2264,4.2268,4.2273,4.2345,0,0,4.2286,4.2288,0,0,0,0,0,0,0,0,4.2093,4.2102,4.217,4.217,4.2171,4.2212,4.2209,4.2273,4.221,4.2195,4.2205,4.2202,4.225,4.2255,4.2272,4.2348,4.2351,4.2287,4.229,4.2292,4.2293,0,0,0,0,0,0,0,4.2089,4.2099,4.2199,4.2171,4.2171,4.2165,4.2171,4.2221,4.2234,4.2196,4.2194,4.2202,4.225,4.2267,4.2273,4.2352,4.2287,4.2291,4.2294,4.2295,4.2492,4.2495,0,0,0,0,0,0,4.2085,4.2096,4.2197,4.2201,4.2126,4.2169,4.2176,4.2201,4.2234,4.2236,4.2203,4.22,4.2261,4.2268,4.2275,4.2363,4.2291,4.2296,4.2298,4.249,4.2493,4.2496,0,0,0,0,0,0,4.2082,4.2095,4.2194,4.2148,4.216,4.2174,4.2203,4.2204,4.2221,4.2239,4.2241,4.2219,4.2259,4.2268,4.2328,4.2365,4.2298,4.2302,4.2487,4.2491,4.2494,4.254,0,0,0,0,0,0,4.2079,4.2094,4.2122,4.2149,4.2163,4.2247,4.2205,4.2206,4.2229,4.2225,4.2255,4.2257,4.2258,4.2322,4.2333,4.237,4.2305,4.2484,4.2489,4.2493,4.2535,4.2545,4.2553,0,0,0,0,0,4.2074,4.2132,4.2123,4.2135,4.2198,4.2249,4.2257,4.2257,4.2232,4.226,4.2272,4.2256,4.2359,4.2328,4.234,4.2379,4.2481,4.2487,4.2493,4.2531,4.2543,4.2553,0,0,0,0,0,0,4.2108,4.2135,4.2126,4.2194,4.222,4.2245,4.228,4.2269,4.2302,4.2298,4.2296,4.2303,4.2365,4.2378,4.2343,4.2452,4.2416,4.2425,4.2442,4.2453,4.2461,4.2457,4.2309,0,0,0,0,0,4.2124,4.2164,4.2185,4.2243,4.2257,4.2266,4.2289,4.2287,4.2313,4.2323,4.2339,4.2365,4.2403,4.2429,4.2465,4.2537,4.2543,4.257,4.2579,4.2586,4.2593,4.2633,4.2646,4.2514,4.2514,4.2514,0,0,4.2157,4.2176,4.2201,4.2251,4.227,4.2312,4.2276,4.2321,4.2351,4.233,4.2388,4.2401,4.2429,4.2496,4.2526,4.2509,4.2631,4.2593,4.2599,4.2602,4.264,4.2653,4.2664,4.2518,4.2517,4.2517,0,0,4.2238,4.2256,4.2307,4.2328,4.2358,4.2364,4.2376,4.2403,4.241,4.2468,4.2454,4.249,4.2556,4.2577,4.2597,4.2686,4.2673,4.2698,4.2745,4.2784,4.2794,4.2803,4.2836,4.2848,4.2705,4.2705,4.2705,0,4.2275,4.2337,4.2335,4.2382,4.2404,4.2387,4.2439,4.2459,4.2499,4.2515,4.2495,4.2577,4.2595,4.2667,4.2689,4.2705,4.272,4.2695,4.2793,4.2802,4.281,4.2842,4.2854,4.2708,4.2708,4.2708,4.2707,0,4.2381,4.2424,4.2462,4.2501,4.2528,4.2577,4.2583,4.261,4.2606,4.2614,4.2674,4.2695,4.2735,4.2752,4.2748,4.2824,4.2812,4.2792,4.2757,4.2826,4.2855,4.2867,4.2712,4.2711,4.271,4.271,0,0,4.2486,4.2524,4.2538,4.2557,4.2588,4.2622,4.267,4.271,4.2734,4.2762,4.2803,4.2859,4.2841,4.2863,4.2861,4.2895,4.2966,4.2872,4.2872,4.2889,4.3052,4.3068,4.3081,4.2957,4.296,4.2961,4.305,0,4.257,4.2655,4.2655,4.2734,4.2774,4.2758,4.2801,4.2825,4.2834,4.2869,4.2879,4.2919,4.2892,4.2906,4.2939,4.2951,4.2999,4.2944,4.2996,4.2998,4.299,4.3097,4.3113,4.3196,4.3061,4.3063,4.3065,0,4.268,4.2712,4.2795,4.2822,4.2838,4.2876,4.2913,4.2947,4.2974,4.2978,4.3004,4.2997,4.3046,4.3008,4.3077,4.304,4.3061,4.307,4.3073,4.3079,4.3036,4.3106,4.3222,4.3235,4.3083,4.3081,4.308,0,4.275,4.2814,4.2872,4.2888,4.292,4.2947,4.2962,4.2987,4.3011,4.3043,4.3058,4.3096,4.3116,4.3146,4.3149,4.3121,4.3218,4.318,4.3224,4.3224,4.3246,4.3244,4.3368,4.3258,4.3258,4.3257,4.3257,0,4.2845,4.2896,4.2904,4.294,4.2997,4.2996,4.3053,4.3065,4.3088,4.3126,4.3114,4.315,4.3152,4.3189,4.3191,4.3248,4.3257,4.3263,4.3263,4.3264,4.3264,4.3279,4.3274,4.3261,4.326,4.3259,4.3259,0,4.2933,4.294,4.3002,4.3027,4.3035,4.3076,4.3098,4.3132,4.314,4.3188,4.32,4.3212,4.3255,4.3261,4.3311,4.3313,4.3382,4.3375,4.3373,4.3372,4.3416,4.3412,4.3553,4.3572,4.3449,4.345,4.3451,0,4.2993,4.3033,4.3062,4.3087,4.3103,4.3143,4.3168,4.3168,4.3195,4.3229,4.3259,4.3301,4.3335,4.3404,4.3417,4.3456,4.3451,4.3498,4.3457,4.3457,4.3453,4.3451,4.3456,4.3506,4.3508,4.3509,4.351,0,4.3101,4.3102,4.3138,4.3176,4.3205,4.3235,4.3263,4.3283,4.3288,4.3318,4.3362,4.3388,4.3439,4.3481,4.3519,4.3534,4.3523,4.3522,4.3535,4.3537,4.3534,4.3538,4.3396,4.3519,4.3518,4.3518,4.3517,4.3517,4.3178,4.3212,4.3238,4.3279,4.33,4.3326,4.336,4.3372,4.3409,4.3451,4.3449,4.3497,4.3524,4.3574,4.3592,4.363,4.3615,4.3632,4.3637,4.3641,4.3646,4.3527,4.3637,4.3636,4.3636,4.3636,4.3636,0,4.3285,4.3301,4.3339,4.3378,4.341,4.3396,4.3426,4.3454,4.3497,4.3523,4.3556,4.3607,4.3647,4.3664,4.3704,4.3731,4.3727,4.3742,4.3741,4.3744,4.3657,4.3643,4.3745,4.3745,4.3745,4.3745,4.3745,4.3745,4.3345,4.3403,4.3408,4.3476,4.3492,4.3539,4.3558,4.3582,4.3603,4.366,4.3694,4.3704,4.3726,4.3768,4.3805,4.3808,4.3824,4.3841,4.3843,4.3761,4.375,4.374,4.3727,4.3845,4.3845,4.3928,4.3928,4.3929]}]]